Flag for Kazakhstan Weather past 2 weeks in Astana, Kazakhstan

Now
21 °F

Snow flurries. Broken clouds.


Feels Like: 8 °F
Forecast: 14 / 22 °F
Wind: 15 mph from West

Location: Astana

Current Time: Oct 25, 2014 at 5:27:54 PM

Latest Report: Oct 25, 2014 at 5:00 PM


Visibility: N/A

Pressure: 29.95 "Hg

Humidity: 63%

Dew point: 10 °F

Location of AstanaLocation

Historic Weather in Astana — Graph

°F

Astana temperature yesterday

Maximum temperature yesterday: 43 °F (at 2:30 AM)
Minimum temperature yesterday: 27 °F (at 8:30 PM)
Average temperature yesterday: 34 °F

Past Weeks' High & Low Weather Summary

 TemperatureHumidityPressure
High68 °F (Oct 19, 3:30 PM)100% (Oct 13, 6:30 AM)30.45 "Hg (Oct 13, 6:30 AM)
Low12 °F (Oct 25, 8:00 AM)19% (Oct 17, 4:00 PM)29.30 "Hg (Oct 20, 6:30 PM)
Average42 °F73%29.92 "Hg
* Reported Oct 10 4:00 PM — Oct 25 4:30 PM, Astana, Weather by CustomWeather, © 2014

Note: Actual official high and low records may vary slightly from our data, if they occured in-between our weather recording intervals... More about our weather records

Advertising

Astana weather history for previous 24 hours

 ConditionsComfort  
Time TempWeatherWind HumidityBarometerVisibility
4:30 PM
Oct 25
21 °FSnow flurries. Broken clouds.15 mph63%29.95 "HgN/A
4:00 PM21 °FSnow flurries. Partly sunny.17 mph63%29.95 "HgN/A
3:30 PM21 °FSnow flurries. Partly sunny.15 mph68%29.95 "HgN/A
3:00 PM21 °FPartly sunny.20 mph63%29.92 "HgN/A
2:30 PM21 °FSnow flurries. Partly sunny.15 mph74%29.92 "HgN/A
2:00 PM21 °FBroken clouds.17 mph68%29.92 "HgN/A
1:30 PM19 °FBroken clouds.20 mph68%29.92 "HgN/A
1:00 PM19 °FSnow flurries. Broken clouds.17 mph73%29.92 "HgN/A
12:30 PM21 °FBroken clouds.17 mph63%29.92 "HgN/A
12:00 PM19 °FPartly sunny.20 mph63%29.92 "HgN/A
11:30 AM21 °FPartly sunny.17 mph68%29.89 "HgN/A
11:00 AM19 °FPartly sunny.17 mph73%29.89 "HgN/A
10:30 AM19 °FScattered clouds.15 mph73%29.89 "HgN/A
10:00 AM18 °FScattered clouds.15 mph73%29.89 "HgN/A
9:30 AM18 °FPartly sunny.15 mph73%29.89 "HgN/A
8:30 AM14 °FPassing clouds.8 mph85%29.86 "HgN/A
8:00 AM12 °FSunny.8 mph85%29.86 "Hg10 mi
7:30 AM14 °FClear.8 mph85%29.86 "Hg10 mi
7:00 AM14 °FClear.8 mph85%29.86 "Hg10 mi
6:30 AM16 °FClear.8 mph86%29.83 "Hg10 mi
6:00 AM14 °FClear.6 mph85%29.83 "Hg10 mi
5:30 AM16 °FPassing clouds.8 mph79%29.83 "HgN/A
5:00 AM16 °FPassing clouds.8 mph86%29.80 "HgN/A
4:30 AM18 °FPartly cloudy.10 mph86%29.80 "HgN/A
4:00 AM19 °FPartly cloudy.13 mph79%29.80 "HgN/A
3:30 AM19 °FOvercast.13 mph79%29.80 "HgN/A
3:00 AM21 °FOvercast.10 mph74%29.77 "HgN/A
2:30 AM21 °FMostly cloudy.13 mph86%29.77 "HgN/A
2:00 AM21 °FLight snow. Mostly cloudy.15 mph86%29.77 "HgN/A
1:30 AM25 °FLight snow. Mostly cloudy.8 mph80%29.77 "HgN/A
1:00 AM25 °FOvercast.10 mph80%29.74 "HgN/A
12:30 AM25 °FLight snow. Mostly cloudy.13 mph86%29.77 "HgN/A
12:00 AM27 °FLight snow. Mostly cloudy.10 mph93%29.74 "Hg6 mi
11:30 PM
Oct 24
27 °FMostly cloudy.8 mph93%29.77 "HgN/A
11:00 PM27 °FPartly cloudy.6 mph93%29.77 "HgN/A
10:30 PM28 °FPartly cloudy.6 mph86%29.77 "HgN/A
10:00 PM27 °FPartly cloudy.6 mph93%29.77 "HgN/A
9:30 PM27 °FPartly cloudy.3 mph93%29.77 "HgN/A
9:00 PM27 °FPartly cloudy.3 mph93%29.77 "HgN/A
8:30 PM27 °FPartly cloudy.6 mph93%29.80 "HgN/A
8:00 PM28 °FPartly cloudy.6 mph93%29.80 "HgN/A
7:30 PM28 °FMostly cloudy.6 mph93%29.80 "HgN/A
7:00 PM28 °FMostly cloudy.6 mph93%29.77 "HgN/A
6:30 PM28 °FSnow flurries. Mostly cloudy.6 mph100%29.77 "HgN/A
6:00 PM28 °FLight snow. More clouds than sun.3 mph100%29.77 "HgN/A
5:30 PM30 °FLight snow. More clouds than sun.6 mph93%29.80 "HgN/A
5:00 PM30 °FSnow. More clouds than sun.6 mph93%29.77 "Hg2 mi
Weather by CustomWeather, © 2014

See weather overviewHow to use our weather pages